| time (UTC) | temp F | wind direction | speed knots | gust knots | rain 1hr in | rain 24hr in | rain mn in | humidity % | barometer mb |
| 20260503021658 | 39 | 64 | 0.9 | 0.9 | 0.00 | 0.00 | 0.00 | 68 | 1018.5 |
| 20260503020658 | 39 | 65 | 0.0 | 0.9 | 0.00 | 0.00 | 0.00 | 67 | 1018.6 |
| 20260503015658 | 41 | 76 | 0.9 | 0.9 | 0.00 | 0.00 | 0.00 | 62 | 1018.5 |
| 20260503014658 | 41 | 70 | 1.7 | 1.7 | 0.00 | 0.00 | 0.00 | 60 | 1018.6 |
| 20260503013658 | 42 | 58 | 1.7 | 1.7 | 0.00 | 0.00 | 0.00 | 58 | 1018.1 |
| 20260503012658 | 43 | 77 | 1.7 | 1.7 | 0.00 | 0.00 | 0.00 | 57 | 1018.2 |
| 20260503011659 | 43 | 81 | 1.7 | 1.7 | 0.00 | 0.00 | 0.00 | 56 | 1017.9 |
| 20260503010658 | 43 | 68 | 0.0 | 1.7 | 0.00 | 0.00 | 0.00 | 54 | 1018.2 |
| 20260503005659 | 44 | 79 | 0.9 | 1.7 | 0.00 | 0.00 | 0.00 | 55 | 1018.0 |
| 20260503004658 | 44 | 57 | 1.7 | 1.7 | 0.00 | 0.00 | 0.00 | 55 | 1017.9 |
| 20260503003658 | 44 | 38 | 2.6 | 2.6 | 0.00 | 0.00 | 0.00 | 52 | 1018.0 |
| 20260503002658 | 44 | 35 | 1.7 | 1.7 | 0.00 | 0.00 | 0.00 | 52 | 1017.8 |
| 20260503001658 | 44 | 43 | 1.7 | 1.7 | 0.00 | 0.00 | 0.00 | 50 | 1017.9 |
| 20260503000658 | 44 | 58 | 0.0 | 1.7 | 0.00 | 0.00 | 0.00 | 49 | 1017.6 |
| 20260502235658 | 44 | 49 | 1.7 | 1.7 | 0.00 | 0.00 | 0.00 | 49 | 1017.5 |
| 20260502234658 | 45 | 59 | 1.7 | 2.6 | 0.00 | 0.00 | 0.00 | 49 | 1017.5 |
| 20260502233658 | 45 | 69 | 1.7 | 2.6 | 0.00 | 0.00 | 0.00 | 47 | 1017.4 |
| 20260502232658 | 45 | 56 | 1.7 | 1.7 | 0.00 | 0.00 | 0.00 | 47 | 1017.6 |
| 20260502231658 | 45 | 164 | 1.7 | 2.6 | 0.00 | 0.00 | 0.00 | 46 | 1017.5 |
| 20260502225658 | 45 | 20 | 1.7 | 2.6 | 0.00 | 0.00 | 0.00 | 46 | 1017.4 |
| 20260502224658 | 45 | 178 | 1.7 | 3.5 | 0.00 | 0.00 | 0.00 | 46 | 1017.5 |
| 20260502223658 | 45 | 63 | 1.7 | 2.6 | 0.00 | 0.00 | 0.00 | 45 | 1017.5 |
| 20260502222658 | 45 | 69 | 1.7 | 2.6 | 0.00 | 0.00 | 0.00 | 44 | 1017.4 |
| 20260502221659 | 46 | 32 | 3.5 | 5.2 | 0.00 | 0.00 | 0.00 | 44 | 1017.5 |
| 20260502220658 | 46 | 59 | 1.7 | 2.6 | 0.00 | 0.00 | 0.00 | 45 | 1017.4 |
| 20260502215658 | 46 | 25 | 4.3 | 6.1 | 0.00 | 0.00 | 0.00 | 45 | 1017.4 |
| 20260502214658 | 46 | 48 | 1.7 | 2.6 | 0.00 | 0.00 | 0.00 | 44 | 1017.3 |
| 20260502213658 | 46 | 29 | 1.7 | 2.6 | 0.00 | 0.00 | 0.00 | 44 | 1017.2 |
| 20260502212658 | 46 | 0 | 0.0 | 1.7 | 0.00 | 0.00 | 0.00 | 44 | 1017.2 |
| 20260502211658 | 47 | 6 | 3.5 | 3.5 | 0.00 | 0.00 | 0.00 | 43 | 1017.0 |
| 20260502210658 | 46 | 24 | 1.7 | 4.3 | 0.00 | 0.00 | 0.00 | 41 | 1016.8 |
| 20260502205658 | 46 | 30 | 3.5 | 4.3 | 0.00 | 0.00 | 0.00 | 41 | 1017.0 |
| 20260502204658 | 47 | 54 | 5.2 | 5.2 | 0.00 | 0.00 | 0.00 | 43 | 1016.7 |
| 20260502203658 | 46 | 11 | 2.6 | 2.6 | 0.00 | 0.00 | 0.00 | 43 | 1017.1 |
| 20260502202658 | 47 | 68 | 1.7 | 2.6 | 0.00 | 0.00 | 0.00 | 40 | 1016.8 |
| 20260502201658 | 47 | 42 | 2.6 | 2.6 | 0.00 | 0.00 | 0.00 | 45 | 1017.0 |
| 20260502200658 | 47 | 55 | 1.7 | 2.6 | 0.00 | 0.00 | 0.00 | 42 | 1017.2 |
| 20260502195658 | 46 | 48 | 3.5 | 5.2 | 0.00 | 0.00 | 0.00 | 44 | 1017.2 |
| 20260502194659 | 46 | 32 | 3.5 | 4.3 | 0.00 | 0.00 | 0.00 | 44 | 1017.3 |
| 20260502193658 | 46 | 39 | 3.5 | 3.5 | 0.00 | 0.00 | 0.00 | 44 | 1017.2 |
| 20260502192658 | 47 | 40 | 2.6 | 6.1 | 0.00 | 0.00 | 0.00 | 43 | 1017.5 |
| 20260502191658 | 48 | 9 | 1.7 | 3.5 | 0.00 | 0.00 | 0.00 | 43 | 1017.3 |
| 20260502190658 | 47 | 120 | 1.7 | 2.6 | 0.00 | 0.00 | 0.00 | 47 | 1017.1 |
| 20260502185658 | 46 | 173 | 2.6 | 2.6 | 0.00 | 0.00 | 0.00 | 43 | 1017.5 |
| 20260502184659 | 47 | 16 | 5.2 | 5.2 | 0.00 | 0.00 | 0.00 | 44 | 1017.6 |
| 20260502183658 | 46 | 25 | 3.5 | 3.5 | 0.00 | 0.00 | 0.00 | 46 | 1017.6 |
| 20260502182659 | 46 | 40 | 4.3 | 4.3 | 0.00 | 0.00 | 0.00 | 48 | 1017.7 |
| 20260502181658 | 45 | 66 | 1.7 | 2.6 | 0.00 | 0.00 | 0.00 | 47 | 1017.7 |
| 20260502180658 | 45 | 11 | 5.2 | 5.2 | 0.00 | 0.00 | 0.00 | 45 | 1017.7 |
| 20260502163658 | 45 | 1 | 3.5 | 3.5 | 0.00 | 0.00 | 0.00 | 48 | 1017.9 |
| 20260502162658 | 45 | 68 | 1.7 | 4.3 | 0.00 | 0.00 | 0.00 | 49 | 1018.2 |
| 20260502161658 | 46 | 41 | 3.5 | 3.5 | 0.00 | 0.00 | 0.00 | 45 | 1018.0 |
| 20260502160658 | 45 | 22 | 1.7 | 4.3 | 0.00 | 0.00 | 0.00 | 51 | 1018.0 |
| 20260502151659 | 46 | 58 | 2.6 | 3.5 | 0.00 | 0.00 | 0.00 | 50 | 1017.9 |
| 20260502150658 | 44 | 37 | 3.5 | 5.2 | 0.00 | 0.00 | 0.00 | 54 | 1018.3 |
| 20260502130658 | 40 | 20 | 3.5 | 4.3 | 0.00 | 0.00 | 0.00 | 72 | 1018.5 |
| 20260502123658 | 37 | 34 | 3.5 | 5.2 | 0.00 | 0.00 | 0.00 | 78 | 1018.4 |
| 20260502122658 | 36 | 69 | 1.7 | 3.5 | 0.00 | 0.00 | 0.00 | 77 | 1018.3 |
| 20260502121658 | 35 | 359 | 2.6 | 3.5 | 0.00 | 0.00 | 0.00 | 79 | 1018.2 |
| 20260502120658 | 35 | 34 | 2.6 | 2.6 | 0.00 | 0.00 | 0.00 | 84 | 1018.2 |
| 20260502115658 | 34 | 32 | 0.9 | 2.6 | 0.00 | 0.00 | 0.00 | 84 | 1018.4 |
| 20260502114658 | 33 | 344 | 0.0 | 1.7 | 0.00 | 0.00 | 0.00 | 85 | 1018.2 |
| 20260502113658 | 33 | 6 | 3.5 | 3.5 | 0.00 | 0.00 | 0.00 | 86 | 1018.3 |
| 20260502112658 | 33 | 13 | 1.7 | 2.6 | 0.00 | 0.00 | 0.00 | 87 | 1018.3 |
| 20260502111658 | 32 | 41 | 2.6 | 2.6 | 0.00 | 0.00 | 0.00 | 89 | 1017.9 |
| 20260502110658 | 32 | 75 | 2.6 | 2.6 | 0.00 | 0.00 | 0.00 | 91 | 1018.2 |
| 20260502105658 | 32 | 60 | 1.7 | 2.6 | 0.00 | 0.00 | 0.00 | 93 | 1018.3 |
| 20260502104658 | 31 | 48 | 0.9 | 2.6 | 0.00 | 0.00 | 0.00 | 94 | 1018.3 |
| 20260502103658 | 32 | 48 | 2.6 | 2.6 | 0.00 | 0.00 | 0.00 | 94 | 1018.3 |
| 20260502102658 | 32 | 39 | 0.0 | 1.7 | 0.00 | 0.00 | 0.00 | 94 | 1018.1 |
| 20260502101658 | 32 | 5 | 1.7 | 1.7 | 0.00 | 0.00 | 0.00 | 95 | 1018.2 |
| 20260502100658 | 32 | 53 | 3.5 | 4.3 | 0.00 | 0.00 | 0.00 | 96 | 1018.0 |
| 20260502090658 | 32 | 115 | 2.6 | 3.5 | 0.00 | 0.00 | 0.00 | 98 | 1017.9 |
| 20260502070658 | 33 | 82 | 0.0 | 3.5 | 0.00 | 0.00 | 0.00 | 98 | 1017.7 |
| 20260502064658 | 34 | 127 | 1.7 | 2.6 | 0.00 | 0.00 | 0.00 | 98 | 1018.0 |
| 20260502063703 | 34 | 103 | 0.0 | 4.3 | 0.00 | 0.00 | 0.00 | 98 | 1018.2 |
| 20260502062658 | 35 | 37 | 1.7 | 1.7 | 0.00 | 0.00 | 0.00 | 98 | 1018.3 |
| 20260502061659 | 35 | 54 | 0.9 | 0.9 | 0.00 | 0.00 | 0.00 | 98 | 1017.6 |
| 20260502060658 | 35 | 80 | 0.9 | 0.9 | 0.00 | 0.00 | 0.00 | 98 | 1017.9 |
| 20260502055658 | 36 | 79 | 0.0 | 0.9 | 0.00 | 0.00 | 0.00 | 98 | 1017.9 |
| 20260502054658 | 36 | 34 | 2.6 | 2.6 | 0.00 | 0.00 | 0.00 | 98 | 1017.9 |
| 20260502053658 | 36 | 110 | 0.0 | 0.0 | 0.00 | 0.00 | 0.00 | 97 | 1018.0 |
| 20260502052658 | 36 | 65 | 0.0 | 0.9 | 0.00 | 0.00 | 0.00 | 97 | 1017.9 |
| 20260502051658 | 36 | 136 | 0.9 | 0.9 | 0.00 | 0.00 | 0.00 | 97 | 1018.0 |
| 20260502050658 | 36 | 81 | 0.0 | 0.0 | 0.00 | 0.00 | 0.00 | 97 | 1018.1 |
| 20260502045658 | 36 | 66 | 0.0 | 0.0 | 0.00 | 0.00 | 0.00 | 97 | 1017.9 |
| 20260502044702 | 36 | 64 | 1.7 | 1.7 | 0.00 | 0.00 | 0.00 | 97 | 1018.2 |
| 20260502043658 | 36 | 44 | 1.7 | 1.7 | 0.00 | 0.00 | 0.00 | 96 | 1018.0 |
| 20260502042658 | 36 | 73 | 0.0 | 0.9 | 0.00 | 0.00 | 0.00 | 96 | 1018.3 |
| 20260502041658 | 36 | 56 | 0.9 | 1.7 | 0.00 | 0.00 | 0.00 | 96 | 1018.2 |
| 20260502040659 | 36 | 76 | 0.9 | 0.9 | 0.00 | 0.00 | 0.00 | 96 | 1018.0 |
| 20260502035658 | 37 | 65 | 0.9 | 1.7 | 0.00 | 0.00 | 0.10 | 96 | 1018.0 |
| 20260502034658 | 37 | 61 | 1.7 | 1.7 | 0.00 | 0.00 | 0.10 | 96 | 1017.9 |
| 20260502033658 | 37 | 48 | 1.7 | 1.7 | 0.00 | 0.00 | 0.10 | 96 | 1017.9 |
| 20260502032658 | 37 | 75 | 0.9 | 1.7 | 0.00 | 0.00 | 0.10 | 96 | 1018.0 |
| 20260502031658 | 37 | 53 | 0.9 | 1.7 | 0.00 | 0.00 | 0.10 | 96 | 1017.7 |
| 20260502030659 | 37 | 54 | 0.9 | 1.7 | 0.00 | 0.00 | 0.10 | 95 | 1018.0 |
| 20260502024659 | 38 | 103 | 0.0 | 0.9 | 0.00 | 0.00 | 0.10 | 95 | 1017.9 |
| 20260502023658 | 38 | 89 | 0.0 | 0.0 | 0.00 | 0.00 | 0.10 | 94 | 1018.1 |
| 20260502022658 | 38 | 55 | 0.0 | 0.9 | 0.00 | 0.00 | 0.10 | 94 | 1018.0 |